Corpus Christi, TX

5:32 AM CST on December 07, 2016 (GMT -0600)
North Padre Island

Weather History for KOPM - January, 2013

Change the Weather History Date:

Saturday, January 5, 2013

  Actual Average (KHRL) Record (KHRL)
Temperature  
Mean Temperature 55 °F 59 °F  
Max Temperature 59 °F 70 °F 87 °F (1946)
Min Temperature 51 °F 49 °F 28 °F (1913)
Degree Days  
Heating Degree Days 10 7  
Month to date heating degree days 35  
Since 1 July heating degree days 283  
Cooling Degree Days 0 2  
Month to date cooling degree days 10  
Year to date cooling degree days 10  
Growing Degree Days 5 (Base 50)    
Moisture  
Dew Point 51 °F    
Average Humidity 86    
Maximum Humidity 94    
Minimum Humidity 82    
Precipitation  
Precipitation 0.00 in 0.02 in 3.33 in (1958)
Month to date precipitation 0.12  
Year to date precipitation 0.12  
Sea Level Pressure  
Sea Level Pressure 30.24 in    
Wind  
Wind Speed 14 mph (NNW)    
Max Wind Speed 20 mph    
Max Gust Speed 25 mph    
Visibility 10 miles    
Events      
T = Trace of Precipitation, MM = Missing Value Source: NWS Daily Summary

Daily Weather History Graph

Daily Weather History Graph

Search for Another Location

Airport or City:

Trip Planner

Search our weather history database for the weather conditions in past years. The results will help you decide how hot, cold, wet, or windy it might be!

Date:

Astronomy

Jan. 05, 2013 Rise Set
Actual Time 7:17 AM CST 5:49 PM CST
Civil Twilight 6:52 AM CST 6:14 PM CST
Nautical Twilight 6:23 AM CST 6:43 PM CST
Astronomical Twilight 5:55 AM CST 7:11 PM CST
Moon 12:44 AM CST (1/5) 12:23 PM CST (1/5)
Length of Visible Light 11h 22m
Length of Day
10h 31m
Last Quarter, 44% of the Moon is Illuminated
Jan 5
Last Quarter
Jan 11
New
Jan 18
First Quarter
Jan 26
Full
Feb 3
Last Quarter

Hourly Weather History & Observations

Time (CST) Temp. Dew Point Humidity Pressure Visibility Wind Dir Wind Speed Gust Speed Precip Events Conditions
12:15 AM 57.2 °F 53.6 °F 88% 30.26 in 7.0 mi NNW 13.8 mph 19.6 mph N/A   Partly Cloudy
12:35 AM 57.2 °F 53.6 °F 88% 30.25 in 8.0 mi North 12.7 mph 20.7 mph N/A   Partly Cloudy
12:55 AM 57.2 °F 53.6 °F 88% 30.25 in 8.0 mi North 13.8 mph 20.7 mph N/A   Scattered Clouds
1:15 AM 57.2 °F 53.6 °F 88% 30.24 in 8.0 mi North 13.8 mph 21.9 mph N/A   Scattered Clouds
1:35 AM 57.2 °F 53.6 °F 88% 30.24 in 9.0 mi North 15.0 mph 23.0 mph N/A   Scattered Clouds
1:55 AM 57.2 °F 53.6 °F 88% 30.23 in 10.0 mi North 13.8 mph 21.9 mph N/A   Partly Cloudy
2:15 AM 57.2 °F 53.6 °F 88% 30.23 in 10.0 mi North 12.7 mph 20.7 mph N/A   Scattered Clouds
2:35 AM 57.2 °F 53.6 °F 88% 30.23 in 10.0 mi NNW 13.8 mph 21.9 mph N/A   Partly Cloudy
2:55 AM 55.4 °F 51.8 °F 88% 30.23 in 9.0 mi NNW 12.7 mph 18.4 mph N/A   Clear
3:15 AM 55.4 °F 51.8 °F 88% 30.23 in 10.0 mi NNW 13.8 mph 23.0 mph N/A   Clear
3:35 AM 55.4 °F 50.0 °F 82% 30.23 in 10.0 mi NNW 13.8 mph 19.6 mph N/A   Clear
3:55 AM 55.4 °F 50.0 °F 82% 30.23 in 10.0 mi NNW 15.0 mph 21.9 mph N/A   Clear
4:15 AM 55.4 °F 50.0 °F 82% 30.23 in 10.0 mi NNW 13.8 mph 20.7 mph N/A   Clear
4:35 AM 53.6 °F 50.0 °F 88% 30.24 in 10.0 mi NNW 17.3 mph 24.2 mph N/A   Clear
4:55 AM 53.6 °F 48.2 °F 82% 30.24 in 10.0 mi NNW 19.6 mph 25.3 mph N/A   Clear
5:15 AM 53.6 °F 48.2 °F 82% 30.24 in 10.0 mi NNW 18.4 mph 25.3 mph N/A   Clear
5:55 AM 51.8 °F 48.2 °F 88% 30.24 in 10.0 mi NNW 18.4 mph 25.3 mph N/A   Clear
7:15 AM 51.8 °F 48.2 °F 88% 30.27 in 10.0 mi NNW 17.3 mph - N/A   Partly Cloudy
7:35 AM 51.8 °F 48.2 °F 88% 30.27 in 9.0 mi NNW 18.4 mph - N/A   Scattered Clouds
8:35 AM 51.8 °F 48.2 °F 88% 30.29 in 9.0 mi NNW 15.0 mph 24.2 mph N/A   Mostly Cloudy
8:55 AM 51.8 °F 48.2 °F 88% 30.29 in 8.0 mi NNW 17.3 mph - N/A   Partly Cloudy
9:15 AM 51.8 °F 48.2 °F 88% 30.30 in 8.0 mi NNW 16.1 mph 23.0 mph N/A   Clear
9:35 AM 51.8 °F 50.0 °F 94% 30.30 in 8.0 mi NNW 11.5 mph 19.6 mph N/A   Clear
9:55 AM 53.6 °F 50.0 °F 88% 30.30 in 8.0 mi NNW 13.8 mph 21.9 mph N/A   Clear
10:15 AM 53.6 °F 50.0 °F 88% 30.30 in 9.0 mi NNW 12.7 mph 19.6 mph N/A   Clear
10:35 AM 53.6 °F 50.0 °F 88% 30.30 in 9.0 mi NNW 12.7 mph 23.0 mph N/A   Clear
10:55 AM 53.6 °F 50.0 °F 88% 30.30 in 9.0 mi NNW 11.5 mph 18.4 mph N/A   Clear
11:35 AM 53.6 °F 50.0 °F 88% 30.28 in 9.0 mi NNW 15.0 mph 20.7 mph N/A   Clear
11:55 AM 53.6 °F 50.0 °F 88% 30.27 in 9.0 mi NNW 15.0 mph 21.9 mph N/A   Clear
12:15 PM 53.6 °F 50.0 °F 88% 30.27 in 9.0 mi NNW 18.4 mph - N/A   Partly Cloudy
12:55 PM 53.6 °F 50.0 °F 88% 30.24 in 9.0 mi NNW 11.5 mph 20.7 mph N/A   Partly Cloudy
1:35 PM 53.6 °F 51.8 °F 94% 30.23 in 9.0 mi NNW 13.8 mph 20.7 mph N/A   Partly Cloudy
1:55 PM 53.6 °F 50.0 °F 88% 30.22 in 10.0 mi NNW 16.1 mph 23.0 mph N/A   Clear
2:15 PM 53.6 °F 51.8 °F 94% 30.22 in 10.0 mi NNW 16.1 mph - N/A   Partly Cloudy
2:55 PM 53.6 °F 50.0 °F 88% 30.21 in 10.0 mi NNW 16.1 mph - N/A   Partly Cloudy
3:15 PM 53.6 °F 50.0 °F 88% 30.21 in 10.0 mi NNW 16.1 mph - N/A   Clear
3:35 PM 53.6 °F 50.0 °F 88% 30.21 in 10.0 mi NNW 16.1 mph - N/A   Clear
3:55 PM 53.6 °F 50.0 °F 88% 30.21 in 10.0 mi NNW 11.5 mph 19.6 mph N/A   Scattered Clouds
4:15 PM 53.6 °F 51.8 °F 94% 30.21 in 10.0 mi NNW 13.8 mph - N/A   Mostly Cloudy
4:55 PM 55.4 °F 51.8 °F 88% 30.20 in 10.0 mi NNW 12.7 mph 19.6 mph N/A   Mostly Cloudy
5:15 PM 55.4 °F 51.8 °F 88% 30.20 in 10.0 mi NNW 10.4 mph 17.3 mph N/A   Mostly Cloudy
5:35 PM 55.4 °F 51.8 °F 88% 30.20 in 10.0 mi North 11.5 mph 19.6 mph N/A   Mostly Cloudy
5:55 PM 55.4 °F 51.8 °F 88% 30.20 in 10.0 mi NNW 11.5 mph 18.4 mph N/A   Partly Cloudy
6:15 PM 55.4 °F 51.8 °F 88% 30.20 in - NNW 12.7 mph 18.4 mph N/A   Clear
6:55 PM 57.2 °F 51.8 °F 82% 30.20 in 10.0 mi North 10.4 mph 18.4 mph N/A   Clear
7:15 PM 57.2 °F 51.8 °F 82% 30.20 in 10.0 mi North 11.5 mph - N/A   Scattered Clouds
7:55 PM 57.2 °F 51.8 °F 82% 30.22 in 10.0 mi North 10.4 mph 18.4 mph N/A   Scattered Clouds
8:15 PM 57.2 °F 53.6 °F 88% 30.23 in 10.0 mi North 10.4 mph 19.6 mph N/A   Scattered Clouds
8:35 PM 59.0 °F 53.6 °F 82% 30.24 in 10.0 mi NNW 8.1 mph 17.3 mph N/A   Overcast
8:55 PM 59.0 °F 53.6 °F 82% 30.24 in 10.0 mi NNW 11.5 mph 17.3 mph N/A   Overcast
9:15 PM 59.0 °F 53.6 °F 82% 30.24 in 10.0 mi NNW 9.2 mph - N/A   Mostly Cloudy
9:35 PM 59.0 °F 53.6 °F 82% 30.25 in 10.0 mi NNW 10.4 mph - N/A   Partly Cloudy
9:55 PM 59.0 °F 53.6 °F 82% 30.25 in 10.0 mi NNW 10.4 mph - N/A   Clear
10:15 PM 59.0 °F 53.6 °F 82% 30.25 in 10.0 mi NNW 10.4 mph - N/A   Partly Cloudy
10:35 PM 59.0 °F 53.6 °F 82% 30.25 in 10.0 mi NNW 9.2 mph 16.1 mph N/A   Partly Cloudy
10:55 PM 59.0 °F 53.6 °F 82% 30.25 in 10.0 mi NNW 8.1 mph 15.0 mph N/A   Clear
11:15 PM 59.0 °F 53.6 °F 82% 30.24 in 10.0 mi NNW 11.5 mph - N/A   Mostly Cloudy
11:35 PM 59.0 °F 53.6 °F 82% 30.24 in 10.0 mi NNW 12.7 mph - N/A   Mostly Cloudy
11:55 PM 59.0 °F 53.6 °F 82% 30.23 in 10.0 mi NNW 12.7 mph - N/A   Mostly Cloudy